Home   Weather   Radom   Past weeks

Flag for Poland Past Weather in Radom, Poland — Yesterday and Last 2 Weeks

Now
45 °F

Overcast.


Feels Like: 43 °F
Forecast: 40 / 65 °F
Wind: 5 mph from West

Location: Kielce

Current Time: Apr 24, 2017 at 1:26:34 pm

Latest Report: Apr 24, 2017 at 12:00 pm


Visibility: 25 mi

Pressure: 30.09 "Hg

Humidity: N/A

Dew Point: N/A

Location of RadomLocation

Past Weather in Radom — Graph

°F

Radom Temperature Yesterday

Maximum temperature yesterday: 46 °F (at 1:00 pm)
Minimum temperature yesterday: 34 °F (at 2:00 am)
Average temperature yesterday: 39 °F

High & Low Weather Summary for the Past Weeks

 TemperatureHumidityPressure
High66 °F (Apr 10, 5:00 pm)100% (Apr 10, 6:00 am)30.44 "Hg (Apr 10, 6:00 am)
Low24 °F (Apr 21, 5:00 am)43% (Apr 10, 4:00 pm)29.68 "Hg (Apr 13, 5:00 am)
Average41 °F72%30.03 "Hg
* Reported Apr 9 12:00 pm — Apr 24 12:00 pm, Radom, Weather by CustomWeather, © 2017

Note: Actual official high and low records may vary slightly from our data, if they occured in-between our weather recording intervals... More about our weather records

Advertising

Radom Weather History for the Previous 24 Hours

Scroll right to see more
 ConditionsComfort  
Time TempWeatherWind HumidityBarometerVisibility
12:00 pm
Mon, Apr 24
45 °FOvercast.5 mphN/A30.09 "Hg25 mi
11:00 am43 °FOvercast.6 mph65%30.10 "Hg13 mi
10:00 am43 °FPartly sunny.5 mph64%30.10 "Hg19 mi
9:00 am41 °FPartly sunny.5 mph72%30.11 "Hg22 mi
8:00 am39 °FPartly sunny.3 mph81%30.10 "Hg17 mi
7:00 am36 °FPassing clouds.3 mph88%30.09 "Hg14 mi
6:00 am34 °FPassing clouds.3 mph87%30.09 "Hg11 mi
5:00 am36 °FOvercast.3 mph86%30.09 "Hg13 mi
4:00 am36 °FOvercast.5 mph86%30.08 "Hg19 mi
3:00 am36 °FOvercast.2 mph89%30.07 "Hg14 mi
2:00 am37 °FSprinkles. Low clouds.3 mph90%30.07 "Hg7 mi
1:00 am36 °FOvercast.3 mph92%30.07 "Hg9 mi
12:00 am35 °FOvercast.1 mph90%30.08 "Hg9 mi
11:00 pm
Sun, Apr 23
36 °FSprinkles. Overcast.3 mph88%30.07 "Hg6 mi
10:00 pm35 °FOvercast.3 mph91%30.06 "Hg8 mi
9:00 pm35 °FPassing clouds.1 mph90%30.06 "Hg6 mi
8:00 pm37 °FPassing clouds.1 mph82%30.04 "Hg6 mi
7:00 pm39 °FRain showers. Overcast.7 mph77%30.03 "Hg3 mi
6:00 pm39 °FScattered clouds.5 mph78%30.02 "Hg9 mi
5:00 pm45 °FOvercast.5 mph47%29.99 "Hg6 mi
4:00 pm43 °FOvercast.8 mph53%29.99 "Hg19 mi
3:00 pm44 °FScattered clouds.5 mph56%29.98 "Hg6 mi
2:00 pm44 °FScattered clouds.5 mph49%29.98 "Hg19 mi
1:00 pm46 °FSprinkles. Overcast.8 mph44%29.96 "Hg22 mi
Weather by CustomWeather, © 2017

See weather overviewHow to use our weather pages